Regional Weather Roundup
Issued by NWS State College, PA

Home | Current Version | Previous Version | Graphics & Text | Print | Product List | Glossary On
Versions: 1 2 3 4 5 6 7 8 9 10 11 12 13 14 15 16 17 18 19 20 21 22 23 24 25 26 27 28 29 30 31 32 33 34 35 36 37 38 39 40 41 42 43 44 45 46 47 48 49 50
895
ASUS41 KCTP 202203
RWRCTP

REGIONAL WEATHER ROUNDUP
NATIONAL WEATHER SERVICE STATE COLLEGE PA
600 PM EDT SUN AUG 20 2017

Note: "fair" indicates few or no clouds below 12,000 feet with no
significant weather and/or obstructions to visibility.

* = STATION THAT DOES NOT REPORT PRECIPITATION /E.G. RAIN...SNOW...ETC/
    THUNDER OR FOG.

PAZ002>004-007>009-013>016-020>023-029>032-202300-
WESTERN PENNSYLVANIA

CITY           SKY/WX    TMP DP  RH WIND       PRES   REMARKS
ERIE           SUNNY     79  62  56 VRB3      30.10F
MEADVILLE      SUNNY     80  55  42 SW5       30.13F
FRANKLIN*      SUNNY     79  54  41 SW5       30.15S
NEW CASTLE     FAIR      82  58  43 CALM      30.12F
BEAVER COUNTY  NOT AVBL
BUTLER*        SUNNY     81  59  47 S3        30.14F
PITTSBURGH INT MOSUNNY   82  59  45 S6        30.12F
PITTSBURGH     SUNNY     81  57  43 S7        30.12F
INDIANA*       SUNNY     81  57  44 S5        30.17S
LATROBE        SUNNY     81  57  44 W6        30.14S
WASHINGTON CO* SUNNY     81  63  54 SE5       30.13S
$$

PAZ004>006-010>012-017>019-024>028-033>037-041-042-045-046-049>053-202300-
CENTRAL PENNSYLVANIA

CITY           SKY/WX    TMP DP  RH WIND       PRES   REMARKS
BRADFORD       MOSUNNY   78  55  44 W7        30.16S
DUBOIS         SUNNY     78  54  43 NW6       30.15S
CLEARFIELD     MOSUNNY   81  57  43 SW8       30.15S
JOHNSTOWN      SUNNY     78  54  43 NW6       30.18S
ALTOONA        SUNNY     79  61  53 CALM      30.16S
STATE COLLEGE  MOSUNNY   79  61  53 CALM      30.14S
WILLIAMSPORT   SUNNY     83  63  50 SW6       30.07F
SELINSGROVE    SUNNY     81  63  54 CALM      30.10F
FT INDIANTOWN  SUNNY     81  62  52 W9        30.11S
CAPITAL CITY   MOSUNNY   85  57  38 N6        30.11S
HARRISBURG     MOSUNNY   80  69  69 SW5       30.10S
YORK           SUNNY     83  61  47 N3        30.12S
$$

PAZ038>040-043-044-047-048-054-055-060>062-067>071-202300-
EASTERN PENNSYLVANIA

CITY           SKY/WX    TMP DP  RH WIND       PRES   REMARKS
SCRANTON       SUNNY     81  59  47 N5        30.11F
MOUNT POCONO     N/A     74  57  55 NW7       30.16S
ALLENTOWN      MOSUNNY   82  61  48 W8        30.10S
QUAKERTOWN*    CLEAR     81  63  54 W5        30.12S
READING        SUNNY     82  63  52 W7        30.10S
LANCASTER      MOSUNNY   83  62  49 N7        30.12R
COATESVILLE    CLEAR     79  63  57 W6        30.14S
POTTSTOWN      SUNNY     80  61  52 NW6       30.12S
BLUE BELL      SUNNY     79  61  53 NW3       30.12S
DOYLESTOWN     SUNNY     81  61  50 W5        30.10S
WILLOW GROVE   NOT AVBL
NORTH PHILA    SUNNY     84  60  44 NW8       30.11R
PHILADELPHIA   MOSUNNY   85  58  39 NW10      30.09S
$$




USA.gov is the U.S. government's official web portal to all federal, state and local government web resources and services.